Regional Weather Roundup
Issued by NWS

Home | Current Version | Previous Version | Text Only | Print | Product List | Glossary On
Versions: 1 2 3 4 5 6 7 8 9 10 11 12 13 14 15 16 17 18 19 20 21 22 23 24 25 26 27 28 29 30 31 32 33 34 35 36 37 38 39 40 41 42 43 44 45 46 47 48 49 50
000
ASUS44 KLIX 250613
RWRLA
LOUISIANA WEATHER ROUNDUP
NATIONAL WEATHER SERVICE NEW ORLEANS LA
100 AM CDT MON SEP 25 2017

NOTE: "FAIR" INDICATES FEW OR NO CLOUDS BELOW 12,000 FEET WITH NO
      SIGNIFICANT WEATHER AND/OR OBSTRUCTIONS TO VISIBILITY.
      SKY/WX - SKY CONDITION AND SIGNIFICANT WEATHER.
      TMP - AIR TEMPERATURE.    DP   - DEWPOINT TEMPERATURE.
      RH  - RELATIVE HUMIDITY.  PRES - PRESSURE.
      HX  - HEAT INDEX.         WCI  - WIND CHILL INDEX.

*  THESE STATIONS ARE NOT NWS OR FAA STATIONS AND ARE NOT UNDER
   NWS QUALITY CONTROL.

LAZ040-048-061>063-065-066-069-250700-
SOUTHEAST LOUISIANA

CITY           SKY/WX    TMP DP  RH WIND       PRES   REMARKS
N.O. INTL ARPT PTCLDY    77  70  79 E3        29.90F
6HR MIN TEMP:  75; 6HR MAX TEMP:  82;

N.O. LAKEFRONT CLEAR     79  72  79 E9        29.91S
6HR MIN TEMP:  78; 6HR MAX TEMP:  82;

N.O. DOWNTOWN* FAIR      78  70  76 CALM      29.92F
6HR MIN TEMP:  77; 6HR MAX TEMP:  83;

RESERVE*       FAIR      75  72  91 CALM      29.91F
6HR MIN TEMP:  75; 6HR MAX TEMP:  83;

SLIDELL        CLEAR     68  65  90 N3        29.91F
6HR MIN TEMP:  68; 6HR MAX TEMP:  79; 6HR PCP:  0.06;

BATON ROUGE    CLEAR     71  67  87 CALM      29.92F
6HR MIN TEMP:  70; 6HR MAX TEMP:  82;

BOOTHVILLE     PTCLDY    80  72  76 E10       29.89F
6HR MIN TEMP:  79; 6HR MAX TEMP:  80;

BELLE CHASSE   NOT AVBL
BOGALUSA*      FAIR      68  65  89 CALM      29.95S
6HR MIN TEMP:  68; 6HR MAX TEMP:  77;

GALLIANO*      CLEAR     77  69  75 E3        29.90S
6HR MIN TEMP:  77; 6HR MAX TEMP:  80;

NEW ROADS*     FAIR      71  68  89 CALM      29.93S
6HR MIN TEMP:  71; 6HR MAX TEMP:  81;

GONZALES*      FAIR      71  69  94 CALM      29.91S
6HR MIN TEMP:  70; 6HR MAX TEMP:  82;

HAMMOND*       CLEAR     70  66  88 CALM      29.92S
HOUMA*         NOT AVBL
PORT FOURCHON* MOCLDY    81  70  69 E13       29.90S

$$

LAZ041-044-053-054-250700-
SOUTHWEST LOUISIANA

CITY           SKY/WX    TMP DP  RH WIND       PRES   REMARKS
LAKE CHARLES   CLEAR     73  71  93 CALM      29.89F
6HR MIN TEMP:  73; 6HR MAX TEMP:  84; 6HR PCP:  0.61;

LAFAYETTE      CLEAR     74  71  91 CALM      29.91S
6HR MIN TEMP:  73; 6HR MAX TEMP:  81;

PATTERSON      NOT AVBL
SALT POINT       N/A     74  72  93 CALM      29.88F
6HR MIN TEMP:  74; 6HR MAX TEMP:  77;

NEW IBERIA     CLEAR     73  69  87 E3        29.91S
6HR MIN TEMP:  73; 6HR MAX TEMP:  78;

CHENAULT AIRPK   N/A     72  70  94 CALM      29.90F
6HR MIN TEMP:  71; 6HR MAX TEMP:  83; 6HR PCP:  0.01;


$$

LAZ027-028-250700-
CENTRAL LOUISIANA

CITY           SKY/WX    TMP DP  RH WIND       PRES   REMARKS
FORT POLK      CLEAR     73  69  90 CALM      29.91S
6HR MIN TEMP:  72; 6HR MAX TEMP:  80;

ALEXANDRIA INT MOCLDY    72  69  90 E5        29.91S
6HR MIN TEMP:  71; 6HR MAX TEMP:  80;

ALEXANDRIA     CLEAR     68  68 100 CALM      29.93S
6HR MIN TEMP:  68; 6HR MAX TEMP:  77;


$$

LAZ001-002-250700-
NORTHWEST LOUISIANA

CITY           SKY/WX    TMP DP  RH WIND       PRES   REMARKS
SHREVEPORT     CLEAR     71  69  93 SE3       29.90F
6HR MIN TEMP:  71; 6HR MAX TEMP:  84;

BARKSDALE AFB  CLEAR     71  69  94 CALM      29.90F
6HR MIN TEMP:  70; 6HR MAX TEMP:  82;

DTN SHREVEPORT CLEAR     76  69  79 CALM      29.91F
6HR MIN TEMP:  74; 6HR MAX TEMP:  87;


$$

LAZ014-016-250700-
NORTHEAST LOUISIANA

CITY           SKY/WX    TMP DP  RH WIND       PRES   REMARKS
MONROE         CLEAR     74  68  81 SE3       29.94S
6HR MIN TEMP:  71; 6HR MAX TEMP:  80;

TALLULAH       CLEAR     67  65  93 CALM      29.94F
6HR MIN TEMP:  67; 6HR MAX TEMP:  82;


$$




USA.gov is the U.S. government's official web portal to all federal, state and local government web resources and services.